UAE109 LCLK-LMML

Flight info

Callsign UAE109
Flight time N/A
Altitude 38000
Route PHA M31 GENOS DCT TOSKA UM978 VAXOS DCT KPC DCT ROTAS DCT ABNAT DCT EVIRA DCT AGARI M978 GZO
Aircraft B77W/H-SDE1E2E3FGHIJ2J3J4J5M1RWXY/LB1D1

Departure

Time 2026-05-06 15:38
Airport Larnaca International Airport (LCLK)

Arrival

Time N/A
Airport Malta International Airport (LMML)
Time Latitude Longitude Altitude Speed Heading
2026-05-06 15:12 34.86999 33.61114 22 ft 0 kts 225°
2026-05-06 15:18 34.87010 33.61128 23 ft 0 kts 225°
2026-05-06 15:28 34.87062 33.61195 20 ft 2 kts 225°
2026-05-06 15:32 34.87052 33.61188 21 ft 2 kts 206°
2026-05-06 15:32 34.87029 33.61201 20 ft 6 kts 133°
2026-05-06 15:33 34.86966 33.61283 20 ft 21 kts 133°
2026-05-06 15:33 34.86893 33.61425 20 ft 13 kts 72°
2026-05-06 15:33 34.86986 33.61556 20 ft 29 kts 46°
2026-05-06 15:33 34.87120 33.61719 19 ft 25 kts 45°
2026-05-06 15:34 34.87245 33.61872 19 ft 25 kts 45°
2026-05-06 15:34 34.87370 33.62025 19 ft 25 kts 45°
2026-05-06 15:34 34.87495 33.62178 18 ft 25 kts 45°
2026-05-06 15:34 34.87620 33.62331 18 ft 25 kts 44°
2026-05-06 15:35 34.87745 33.62484 18 ft 25 kts 45°
2026-05-06 15:35 34.87870 33.62636 17 ft 25 kts 45°
2026-05-06 15:35 34.87995 33.62789 17 ft 25 kts 45°
2026-05-06 15:35 34.88124 33.62944 16 ft 28 kts 44°
2026-05-06 15:36 34.88272 33.63125 16 ft 30 kts 45°
2026-05-06 15:36 34.88402 33.63284 15 ft 20 kts 45°
2026-05-06 15:36 34.88424 33.63402 16 ft 16 kts 130°
2026-05-06 15:36 34.88347 33.63501 16 ft 16 kts 141°
2026-05-06 15:37 34.88265 33.63478 15 ft 0 kts 222°
2026-05-06 15:37 34.88244 33.63454 15 ft 18 kts 223°
2026-05-06 15:37 34.87995 33.63150 17 ft 92 kts 225°
2026-05-06 15:37 34.87352 33.62368 32 ft 165 kts 224°
2026-05-06 15:38 34.86511 33.61341 780 ft 174 kts 224°
2026-05-06 15:38 34.85646 33.60296 1568 ft 179 kts 225°
2026-05-06 15:38 34.84701 33.59200 2073 ft 198 kts 224°
2026-05-06 15:38 34.83650 33.57970 2344 ft 225 kts 226°
2026-05-06 15:39 34.82533 33.56574 2976 ft 233 kts 227°
2026-05-06 15:39 34.81348 33.55110 3576 ft 250 kts 226°
2026-05-06 15:39 34.80089 33.53556 4146 ft 268 kts 226°
2026-05-06 15:39 34.78785 33.51957 5144 ft 264 kts 228°
2026-05-06 15:40 34.77552 33.50270 5961 ft 270 kts 232°
2026-05-06 15:40 34.76320 33.48491 6687 ft 279 kts 232°
2026-05-06 15:40 34.75045 33.46711 7589 ft 279 kts 231°
2026-05-06 15:40 34.73736 33.44953 8478 ft 281 kts 230°
2026-05-06 15:41 34.72394 33.43203 9354 ft 284 kts 229°
2026-05-06 15:41 34.71030 33.41448 10186 ft 287 kts 229°
2026-05-06 15:41 34.69627 33.39648 10704 ft 303 kts 229°
2026-05-06 15:41 34.68328 33.37540 10847 ft 322 kts 249°
2026-05-06 15:42 34.67905 33.34812 11051 ft 340 kts 272°
2026-05-06 15:42 34.68052 33.31865 11478 ft 356 kts 275°
2026-05-06 15:42 34.68213 33.28826 12350 ft 364 kts 275°
2026-05-06 15:42 34.68361 33.25722 13334 ft 370 kts 274°
2026-05-06 15:43 34.68498 33.22573 14300 ft 376 kts 274°
2026-05-06 15:43 34.68629 33.19396 15330 ft 377 kts 274°
2026-05-06 15:43 34.68755 33.16211 16381 ft 378 kts 274°
2026-05-06 15:43 34.68881 33.13012 17462 ft 378 kts 274°
2026-05-06 15:44 34.69003 33.09863 18508 ft 379 kts 274°
2026-05-06 15:44 34.69129 33.06646 19323 ft 383 kts 274°
2026-05-06 15:44 34.69255 33.03391 20136 ft 386 kts 274°
2026-05-06 15:44 34.69381 33.00117 20967 ft 390 kts 274°
2026-05-06 15:45 34.69507 32.96817 21791 ft 392 kts 274°
2026-05-06 15:45 34.69633 32.93491 22604 ft 395 kts 274°
2026-05-06 15:45 34.69760 32.90127 23400 ft 399 kts 274°
2026-05-06 15:45 34.69886 32.86737 24051 ft 403 kts 274°
2026-05-06 15:46 34.70013 32.83311 24645 ft 407 kts 274°
2026-05-06 15:46 34.70139 32.79903 25287 ft 410 kts 274°
2026-05-06 15:46 34.70266 32.76429 25911 ft 413 kts 274°
2026-05-06 15:46 34.70393 32.72934 26506 ft 416 kts 274°
2026-05-06 15:47 34.70520 32.69399 27077 ft 420 kts 274°
2026-05-06 15:47 34.70651 32.65832 27621 ft 424 kts 274°
2026-05-06 15:47 34.70783 32.62237 28151 ft 427 kts 274°
2026-05-06 15:47 34.70870 32.59847 28489 ft 430 kts 275°
2026-05-06 15:48 34.71002 32.56204 28996 ft 433 kts 274°
2026-05-06 15:48 34.71133 32.52533 29488 ft 436 kts 274°
2026-05-06 15:48 34.71215 32.48834 29949 ft 439 kts 271°
2026-05-06 15:48 34.71091 32.45107 30376 ft 442 kts 269°
2026-05-06 15:49 34.70860 32.41382 30895 ft 441 kts 268°
2026-05-06 15:49 34.70605 32.37677 31508 ft 437 kts 268°
2026-05-06 15:49 34.70362 32.34015 32013 ft 435 kts 269°
2026-05-06 15:49 34.70135 32.30312 32094 ft 443 kts 269°
2026-05-06 15:50 34.69922 32.26562 32276 ft 446 kts 269°
2026-05-06 15:50 34.69719 32.22868 32737 ft 443 kts 269°
2026-05-06 15:50 34.69519 32.19199 33307 ft 438 kts 269°
2026-05-06 15:50 34.69318 32.15520 33851 ft 434 kts 270°
2026-05-06 15:51 34.69118 32.11861 34255 ft 433 kts 270°
2026-05-06 15:51 34.68917 32.08210 34498 ft 434 kts 269°
2026-05-06 15:51 34.68714 32.04538 34747 ft 435 kts 270°
2026-05-06 15:51 34.68509 32.00869 35024 ft 435 kts 269°
2026-05-06 15:52 34.68303 31.97201 35276 ft 436 kts 269°
2026-05-06 15:52 34.68135 31.93523 35509 ft 435 kts 272°
2026-05-06 15:52 34.68219 31.89840 35752 ft 434 kts 276°
2026-05-06 15:52 34.68508 31.86192 35975 ft 434 kts 279°
2026-05-06 15:53 34.69033 31.82636 36204 ft 434 kts 282°
2026-05-06 15:53 34.69618 31.79025 36431 ft 435 kts 282°
2026-05-06 15:53 34.70204 31.75421 36661 ft 435 kts 282°
2026-05-06 15:53 34.70787 31.71815 36894 ft 435 kts 282°
2026-05-06 15:54 34.71369 31.68192 37096 ft 436 kts 282°
2026-05-06 15:54 34.71945 31.64573 37311 ft 437 kts 282°
2026-05-06 15:54 34.72519 31.60944 37531 ft 438 kts 282°
2026-05-06 15:54 34.73093 31.57298 37728 ft 438 kts 282°
2026-05-06 15:55 34.73664 31.53658 37926 ft 439 kts 282°
2026-05-06 15:55 34.74236 31.50002 37997 ft 441 kts 282°
2026-05-06 15:55 34.75375 31.42691 38063 ft 435 kts 281°
2026-05-06 15:56 34.76488 31.35522 38062 ft 428 kts 281°
2026-05-06 15:56 34.77581 31.28464 38069 ft 426 kts 281°
2026-05-06 15:57 34.78673 31.21375 38081 ft 425 kts 282°
2026-05-06 15:57 34.79760 31.14298 38071 ft 426 kts 282°
2026-05-06 15:58 34.80844 31.07211 38076 ft 426 kts 282°
2026-05-06 15:58 34.81925 31.00110 38075 ft 427 kts 281°
2026-05-06 15:59 34.83005 30.92990 38071 ft 428 kts 282°
2026-05-06 15:59 34.84076 30.85900 38071 ft 428 kts 282°
2026-05-06 16:00 34.85150 30.78760 38076 ft 429 kts 282°
2026-05-06 16:00 34.86222 30.71601 38073 ft 429 kts 282°
2026-05-06 16:01 34.87289 30.64446 38072 ft 429 kts 282°
2026-05-06 16:01 34.88352 30.57290 38072 ft 429 kts 282°
2026-05-06 16:02 34.89414 30.50112 38071 ft 429 kts 281°
2026-05-06 16:02 34.90460 30.43004 38073 ft 429 kts 281°
2026-05-06 16:03 34.91510 30.35847 38065 ft 429 kts 282°
2026-05-06 16:03 34.92554 30.28695 38070 ft 428 kts 282°
2026-05-06 16:04 34.93595 30.21537 38068 ft 428 kts 282°
2026-05-06 16:04 34.94631 30.14386 38071 ft 428 kts 282°
2026-05-06 16:05 34.95662 30.07239 38071 ft 428 kts 282°
2026-05-06 16:05 34.96648 30.00116 38075 ft 429 kts 279°
2026-05-06 16:06 34.97017 29.92837 38074 ft 430 kts 275°
2026-05-06 16:06 34.97273 29.85547 38047 ft 430 kts 275°
2026-05-06 16:07 34.97552 29.78261 38064 ft 430 kts 275°
2026-05-06 16:07 34.97835 29.70974 38076 ft 430 kts 275°
2026-05-06 16:08 34.98127 29.63725 38072 ft 430 kts 275°
2026-05-06 16:08 34.98418 29.56430 38074 ft 431 kts 275°
2026-05-06 16:09 34.98702 29.49130 38079 ft 431 kts 275°
2026-05-06 16:09 34.98983 29.41825 38072 ft 431 kts 275°
2026-05-06 16:10 34.99329 29.34536 38071 ft 429 kts 279°
2026-05-06 16:10 35.00478 29.27421 38080 ft 427 kts 286°
2026-05-06 16:11 35.01949 29.20408 38068 ft 427 kts 285°
2026-05-06 16:11 35.03397 29.13417 38078 ft 427 kts 285°
2026-05-06 16:12 35.04838 29.06376 38075 ft 427 kts 285°
2026-05-06 16:12 35.06272 28.99331 38071 ft 427 kts 285°
2026-05-06 16:13 35.07697 28.92299 38064 ft 428 kts 285°
2026-05-06 16:13 35.09122 28.85247 38073 ft 428 kts 285°
2026-05-06 16:14 35.10546 28.78181 38073 ft 428 kts 285°
2026-05-06 16:14 35.11964 28.71116 38078 ft 428 kts 285°
2026-05-06 16:15 35.13371 28.64088 38071 ft 428 kts 285°
2026-05-06 16:15 35.14786 28.56995 38081 ft 429 kts 285°
2026-05-06 16:16 35.16197 28.49901 38077 ft 429 kts 285°
2026-05-06 16:16 35.17602 28.42809 38070 ft 429 kts 285°
2026-05-06 16:17 35.19003 28.35717 38063 ft 429 kts 285°
2026-05-06 16:17 35.20395 28.28652 38073 ft 429 kts 285°
2026-05-06 16:18 35.21789 28.21545 38073 ft 430 kts 285°
2026-05-06 16:18 35.23181 28.14431 38078 ft 430 kts 285°
2026-05-06 16:19 35.24572 28.07297 38069 ft 430 kts 285°
2026-05-06 16:19 35.25948 28.00212 38090 ft 430 kts 285°
2026-05-06 16:20 35.27328 27.93088 38079 ft 430 kts 285°
2026-05-06 16:20 35.28702 27.85967 38072 ft 429 kts 285°
2026-05-06 16:21 35.30071 27.78848 38072 ft 429 kts 285°
2026-05-06 16:21 35.31435 27.71734 38081 ft 429 kts 285°
2026-05-06 16:22 35.32791 27.64634 38075 ft 429 kts 285°
2026-05-06 16:22 35.34146 27.57520 38084 ft 428 kts 285°
2026-05-06 16:23 35.35488 27.50445 38072 ft 429 kts 284°
2026-05-06 16:23 35.36835 27.43320 38061 ft 429 kts 284°
2026-05-06 16:24 35.38180 27.36188 38083 ft 430 kts 284°
2026-05-06 16:24 35.39525 27.29023 38082 ft 431 kts 284°
2026-05-06 16:25 35.40867 27.21854 38085 ft 432 kts 284°
2026-05-06 16:25 35.42179 27.14704 38072 ft 433 kts 282°
2026-05-06 16:26 35.43012 27.07381 38082 ft 435 kts 279°
2026-05-06 16:26 35.43755 27.00013 38078 ft 436 kts 279°
2026-05-06 16:27 35.44504 26.92624 38082 ft 436 kts 279°
2026-05-06 16:27 35.45260 26.85235 38079 ft 436 kts 279°
2026-05-06 16:28 35.46015 26.77846 38090 ft 436 kts 279°
2026-05-06 16:28 35.46764 26.70486 38093 ft 436 kts 279°
2026-05-06 16:29 35.47512 26.63084 38093 ft 436 kts 279°
2026-05-06 16:29 35.48250 26.55733 38084 ft 436 kts 279°
2026-05-06 16:30 35.48745 26.50784 38091 ft 436 kts 279°
2026-05-06 16:30 35.49722 26.40944 38095 ft 437 kts 279°
2026-05-06 16:31 35.50451 26.33538 38093 ft 437 kts 279°
2026-05-06 16:31 35.51055 26.27378 38093 ft 437 kts 279°
2026-05-06 16:32 35.51895 26.18745 38092 ft 437 kts 278°
2026-05-06 16:32 35.52493 26.12568 38097 ft 438 kts 278°
2026-05-06 16:33 35.53208 26.05121 38095 ft 438 kts 278°
2026-05-06 16:34 35.54269 25.93994 38086 ft 439 kts 278°
2026-05-06 16:34 35.54974 25.86536 38101 ft 440 kts 278°
2026-05-06 16:35 35.55676 25.79070 38097 ft 441 kts 278°
2026-05-06 16:35 35.56491 25.70323 38096 ft 441 kts 278°
2026-05-06 16:36 35.57068 25.64094 38093 ft 442 kts 278°
2026-05-06 16:36 35.57756 25.56620 38093 ft 442 kts 278°
2026-05-06 16:37 35.58441 25.49113 38099 ft 443 kts 278°
2026-05-06 16:37 35.59125 25.41578 38098 ft 443 kts 278°
2026-05-06 16:38 35.59800 25.34087 38099 ft 444 kts 278°
2026-05-06 16:38 35.60475 25.26540 38099 ft 444 kts 277°
2026-05-06 16:39 35.61145 25.18997 38100 ft 444 kts 277°
2026-05-06 16:39 35.61811 25.11451 38100 ft 444 kts 277°
2026-05-06 16:40 35.62472 25.03902 38096 ft 444 kts 277°
2026-05-06 16:40 35.63129 24.96348 38099 ft 447 kts 277°
2026-05-06 16:41 35.63790 24.88694 38109 ft 458 kts 277°
2026-05-06 16:41 35.64463 24.80841 38104 ft 463 kts 277°
2026-05-06 16:42 35.65133 24.72937 38097 ft 465 kts 277°
2026-05-06 16:42 35.65799 24.65031 38096 ft 464 kts 277°
2026-05-06 16:43 35.66457 24.57154 38094 ft 462 kts 277°
2026-05-06 16:43 35.67104 24.49361 38094 ft 459 kts 277°
2026-05-06 16:44 35.67745 24.41565 38096 ft 457 kts 277°
2026-05-06 16:44 35.68381 24.33782 38082 ft 456 kts 277°
2026-05-06 16:45 35.69010 24.26022 38083 ft 455 kts 277°
2026-05-06 16:45 35.69632 24.18271 38082 ft 456 kts 276°
2026-05-06 16:46 35.70252 24.10496 38083 ft 456 kts 276°
2026-05-06 16:46 35.70866 24.02723 38084 ft 457 kts 276°
2026-05-06 16:47 35.71473 23.94978 38089 ft 458 kts 276°
2026-05-06 16:47 35.72080 23.87175 38100 ft 458 kts 276°
2026-05-06 16:48 35.72683 23.79350 38100 ft 459 kts 276°
2026-05-06 16:48 35.73280 23.71524 38096 ft 458 kts 276°
2026-05-06 16:49 35.73872 23.63710 38096 ft 458 kts 276°
2026-05-06 16:49 35.74455 23.55953 38094 ft 457 kts 276°
2026-05-06 16:50 35.75035 23.48158 38099 ft 457 kts 276°
2026-05-06 16:50 35.75609 23.40370 38096 ft 456 kts 276°
2026-05-06 16:51 35.76178 23.32599 38093 ft 455 kts 276°
2026-05-06 16:51 35.76740 23.24835 38093 ft 455 kts 276°
2026-05-06 16:52 35.77297 23.17079 38093 ft 454 kts 276°
2026-05-06 16:52 35.77846 23.09375 38095 ft 454 kts 276°
2026-05-06 16:53 35.78392 23.01631 38098 ft 454 kts 276°
2026-05-06 16:53 35.78934 22.93873 38094 ft 454 kts 276°
2026-05-06 16:54 35.79471 22.86104 38093 ft 454 kts 276°
2026-05-06 16:54 35.80003 22.78349 38089 ft 454 kts 276°
2026-05-06 16:55 35.80527 22.70642 38096 ft 455 kts 275°
2026-05-06 16:55 35.81049 22.62875 38093 ft 455 kts 275°
2026-05-06 16:56 35.81567 22.55096 38088 ft 455 kts 275°
2026-05-06 16:56 35.82080 22.47322 38090 ft 455 kts 275°
2026-05-06 16:57 35.82587 22.39548 38091 ft 454 kts 275°
2026-05-06 16:57 35.83086 22.31839 38089 ft 454 kts 275°
2026-05-06 16:58 35.83583 22.24072 38092 ft 454 kts 275°
2026-05-06 16:58 35.84075 22.16304 38084 ft 454 kts 275°
2026-05-06 16:59 35.84561 22.08548 38101 ft 453 kts 275°
2026-05-06 16:59 35.85042 22.00808 38087 ft 452 kts 275°
2026-05-06 17:00 35.85516 21.93085 38089 ft 452 kts 275°
2026-05-06 17:00 35.85981 21.85422 38091 ft 451 kts 275°
2026-05-06 17:01 35.86445 21.77713 38093 ft 450 kts 275°
2026-05-06 17:01 35.86903 21.70012 38094 ft 450 kts 275°
2026-05-06 17:02 35.87356 21.62312 38097 ft 449 kts 275°
2026-05-06 17:02 35.87803 21.54628 38098 ft 449 kts 275°
2026-05-06 17:03 35.88245 21.46951 38094 ft 449 kts 275°
2026-05-06 17:03 35.88682 21.39276 38095 ft 449 kts 275°
2026-05-06 17:04 35.89114 21.31585 38098 ft 449 kts 275°
2026-05-06 17:04 35.89539 21.23942 38099 ft 449 kts 275°
2026-05-06 17:05 35.89962 21.16254 38093 ft 449 kts 275°
2026-05-06 17:05 35.90380 21.08554 38101 ft 449 kts 275°
2026-05-06 17:06 35.90794 21.00853 38102 ft 449 kts 275°
2026-05-06 17:06 35.91202 20.93157 38097 ft 449 kts 275°
2026-05-06 17:07 35.91605 20.85470 38095 ft 449 kts 275°
2026-05-06 17:07 35.92000 20.77827 38097 ft 448 kts 275°
2026-05-06 17:08 35.92393 20.70153 38094 ft 448 kts 275°
2026-05-06 17:08 35.92780 20.62471 38095 ft 447 kts 275°
2026-05-06 17:09 35.93162 20.54807 38090 ft 447 kts 275°
2026-05-06 17:09 35.93536 20.47201 38090 ft 447 kts 275°
2026-05-06 17:10 35.93908 20.39548 38090 ft 446 kts 275°
2026-05-06 17:10 35.94275 20.31901 38086 ft 446 kts 275°
2026-05-06 17:11 35.94622 20.24261 38092 ft 445 kts 274°
2026-05-06 17:11 35.94320 20.16608 38088 ft 447 kts 267°
2026-05-06 17:12 35.93752 20.09024 38083 ft 447 kts 267°
2026-05-06 17:12 35.93190 20.01390 38088 ft 446 kts 267°
2026-05-06 17:13 35.92639 19.93747 38084 ft 447 kts 267°
2026-05-06 17:13 35.92089 19.86109 38085 ft 447 kts 267°
2026-05-06 17:14 35.91534 19.78462 38075 ft 447 kts 267°
2026-05-06 17:14 35.90974 19.70816 38083 ft 447 kts 267°
2026-05-06 17:15 35.90408 19.63169 38079 ft 448 kts 267°
2026-05-06 17:15 35.89841 19.55566 38079 ft 448 kts 267°
2026-05-06 17:16 35.89265 19.47918 38076 ft 448 kts 267°
2026-05-06 17:16 35.88683 19.40250 38073 ft 448 kts 267°
2026-05-06 17:17 35.88097 19.32601 38067 ft 448 kts 267°
2026-05-06 17:17 35.87508 19.24964 38071 ft 447 kts 267°
2026-05-06 17:18 35.86915 19.17341 38070 ft 447 kts 267°
2026-05-06 17:18 35.86348 19.09758 38081 ft 445 kts 269°
2026-05-06 17:19 35.86373 19.02167 38065 ft 441 kts 273°
2026-05-06 17:19 35.86501 18.95896 38063 ft 439 kts 273°
2026-05-06 17:20 35.86639 18.88376 38065 ft 437 kts 273°
2026-05-06 17:20 35.86759 18.80883 38061 ft 436 kts 273°
2026-05-06 17:21 35.86868 18.73450 38076 ft 435 kts 273°
2026-05-06 17:21 35.86971 18.66009 38062 ft 434 kts 273°
2026-05-06 17:22 35.87070 18.58574 38065 ft 433 kts 273°
2026-05-06 17:22 35.87165 18.51162 38059 ft 432 kts 272°
2026-05-06 17:23 35.87255 18.43757 38060 ft 432 kts 272°
2026-05-06 17:23 35.87341 18.36356 38064 ft 432 kts 272°
2026-05-06 17:24 35.87422 18.28936 38057 ft 433 kts 272°
2026-05-06 17:24 35.87498 18.21500 38057 ft 434 kts 272°
2026-05-06 17:25 35.87570 18.14055 38053 ft 434 kts 272°
2026-05-06 17:25 35.87638 18.06645 38056 ft 435 kts 272°
2026-05-06 17:26 35.87701 17.99191 38062 ft 435 kts 272°
2026-05-06 17:26 35.87759 17.91722 38057 ft 435 kts 272°
2026-05-06 17:27 35.87813 17.84264 38044 ft 434 kts 272°
2026-05-06 17:27 35.87862 17.76822 38048 ft 433 kts 272°
2026-05-06 17:28 35.87906 17.69417 38040 ft 431 kts 272°
2026-05-06 17:28 35.87946 17.62044 38046 ft 429 kts 272°
2026-05-06 17:29 35.87980 17.54734 38048 ft 428 kts 272°
2026-05-06 17:29 35.88011 17.47391 38045 ft 428 kts 272°
2026-05-06 17:30 35.88037 17.40051 38042 ft 428 kts 272°
2026-05-06 17:30 35.88059 17.32725 38040 ft 427 kts 272°
2026-05-06 17:31 35.88076 17.25403 38040 ft 427 kts 272°
2026-05-06 17:31 35.88089 17.18124 38031 ft 427 kts 272°
2026-05-06 17:32 35.88097 17.10813 38033 ft 426 kts 272°
2026-05-06 17:32 35.88102 17.03497 38022 ft 426 kts 272°
2026-05-06 17:33 35.88102 16.96187 38018 ft 425 kts 272°
2026-05-06 17:33 35.88424 16.88932 38030 ft 423 kts 276°
2026-05-06 17:34 35.88936 16.81696 38022 ft 423 kts 276°
2026-05-06 17:34 35.89440 16.74459 38016 ft 423 kts 276°
2026-05-06 17:35 35.89926 16.67274 38024 ft 422 kts 276°
2026-05-06 17:35 35.90406 16.60055 38009 ft 421 kts 276°
2026-05-06 17:36 35.90879 16.52857 37165 ft 419 kts 275°
2026-05-06 17:36 35.91112 16.49296 36554 ft 415 kts 275°
2026-05-06 17:36 35.91342 16.45758 36014 ft 412 kts 275°
2026-05-06 17:36 35.91565 16.42300 35498 ft 409 kts 275°
2026-05-06 17:37 35.91790 16.38814 34964 ft 406 kts 275°
2026-05-06 17:37 35.92013 16.35340 34319 ft 408 kts 274°
2026-05-06 17:37 35.92238 16.31835 33494 ft 412 kts 274°
2026-05-06 17:37 35.92463 16.28288 32679 ft 416 kts 274°
2026-05-06 17:38 35.92687 16.24730 32055 ft 415 kts 274°
2026-05-06 17:38 35.92910 16.21194 31545 ft 412 kts 274°
2026-05-06 17:38 35.93130 16.17681 31025 ft 409 kts 274°
2026-05-06 17:38 35.93348 16.14182 30530 ft 407 kts 274°
2026-05-06 17:39 35.93564 16.10711 30039 ft 405 kts 274°
2026-05-06 17:39 35.93778 16.07248 29474 ft 402 kts 274°
2026-05-06 17:39 35.93989 16.03819 28967 ft 399 kts 274°
2026-05-06 17:39 35.94194 16.00471 28482 ft 395 kts 274°
2026-05-06 17:40 35.94399 15.97106 28004 ft 392 kts 274°
2026-05-06 17:40 35.94602 15.93769 27520 ft 388 kts 274°
2026-05-06 17:40 35.94802 15.90456 27047 ft 385 kts 274°
2026-05-06 17:40 35.94999 15.87172 26585 ft 382 kts 274°
2026-05-06 17:41 35.95194 15.83911 26122 ft 380 kts 274°
2026-05-06 17:41 35.95387 15.80673 25668 ft 377 kts 274°
2026-05-06 17:41 35.95578 15.77452 25211 ft 375 kts 274°
2026-05-06 17:41 35.95767 15.74251 24761 ft 373 kts 274°
2026-05-06 17:42 35.95954 15.71073 24311 ft 371 kts 274°
2026-05-06 17:42 35.96140 15.67902 23852 ft 370 kts 274°
2026-05-06 17:42 35.96324 15.64747 23368 ft 368 kts 274°
2026-05-06 17:42 35.96521 15.61602 22870 ft 366 kts 275°
2026-05-06 17:43 35.96858 15.58490 22410 ft 363 kts 277°
2026-05-06 17:43 35.97236 15.55426 21960 ft 360 kts 277°
2026-05-06 17:43 35.97616 15.52425 21521 ft 356 kts 277°
2026-05-06 17:43 35.97996 15.49408 21074 ft 353 kts 277°
2026-05-06 17:44 35.98369 15.46429 20649 ft 350 kts 277°
2026-05-06 17:44 35.98737 15.43466 20225 ft 347 kts 277°
2026-05-06 17:44 35.99100 15.40517 19799 ft 345 kts 277°
2026-05-06 17:44 35.99457 15.37600 19379 ft 342 kts 277°
2026-05-06 17:45 35.99808 15.34721 19077 ft 336 kts 277°
2026-05-06 17:45 36.00154 15.31871 18691 ft 333 kts 276°
2026-05-06 17:45 36.00496 15.29054 18301 ft 331 kts 276°
2026-05-06 17:45 36.00835 15.26254 17851 ft 329 kts 276°
2026-05-06 17:46 36.01170 15.23471 17400 ft 326 kts 276°
2026-05-06 17:46 36.01502 15.20713 16978 ft 323 kts 276°
2026-05-06 17:46 36.01826 15.18008 16572 ft 321 kts 275°
2026-05-06 17:46 36.02153 15.15282 16167 ft 319 kts 275°
2026-05-06 17:47 36.02476 15.12580 15779 ft 317 kts 275°
2026-05-06 17:47 36.02798 15.09883 15372 ft 315 kts 275°
2026-05-06 17:47 36.03116 15.07210 14970 ft 314 kts 275°
2026-05-06 17:47 36.03433 15.04544 14574 ft 313 kts 275°
2026-05-06 17:48 36.03748 15.01888 14183 ft 312 kts 275°
2026-05-06 17:48 36.04062 14.99233 13789 ft 312 kts 275°
2026-05-06 17:48 36.04376 14.96582 13365 ft 311 kts 275°
2026-05-06 17:48 36.04687 14.93941 12955 ft 310 kts 275°
2026-05-06 17:49 36.04994 14.91344 12572 ft 308 kts 274°
2026-05-06 17:49 36.05302 14.88725 12167 ft 307 kts 274°
2026-05-06 17:49 36.05608 14.86111 11766 ft 306 kts 274°
2026-05-06 17:49 36.05912 14.83516 11387 ft 305 kts 274°
2026-05-06 17:50 36.06214 14.80925 10991 ft 304 kts 274°
2026-05-06 17:50 36.06515 14.78342 10607 ft 304 kts 273°
2026-05-06 17:50 36.06816 14.75778 10396 ft 293 kts 275°
2026-05-06 17:50 36.07095 14.73393 10213 ft 269 kts 274°
2026-05-06 17:51 36.07358 14.71144 10102 ft 260 kts 274°
2026-05-06 17:51 36.07612 14.68961 9999 ft 257 kts 274°
2026-05-06 17:51 36.07867 14.66711 9803 ft 273 kts 272°
2026-05-06 17:51 36.08129 14.64374 9443 ft 280 kts 274°
2026-05-06 17:52 36.08408 14.61979 9120 ft 281 kts 272°
2026-05-06 17:52 36.08684 14.59589 8767 ft 281 kts 272°
2026-05-06 17:52 36.08959 14.57196 8425 ft 280 kts 272°
2026-05-06 17:52 36.09232 14.54812 8083 ft 279 kts 275°
2026-05-06 17:53 36.09502 14.52434 7744 ft 279 kts 274°
2026-05-06 17:53 36.09773 14.50083 7411 ft 279 kts 272°
2026-05-06 17:53 36.10044 14.47703 7071 ft 280 kts 272°
2026-05-06 17:53 36.10314 14.45331 6744 ft 280 kts 274°
2026-05-06 17:54 36.10586 14.42945 6391 ft 281 kts 274°
2026-05-06 17:54 36.10647 14.40591 6011 ft 267 kts 251°
2026-05-06 17:54 36.09892 14.38596 5750 ft 251 kts 226°
2026-05-06 17:54 36.08707 14.37025 5466 ft 250 kts 218°
2026-05-06 17:55 36.07448 14.35505 5164 ft 256 kts 218°
2026-05-06 17:55 36.06180 14.33978 4831 ft 251 kts 217°
2026-05-06 17:55 36.04932 14.32470 4562 ft 255 kts 219°
2026-05-06 17:55 36.03664 14.30946 4435 ft 248 kts 216°
2026-05-06 17:56 36.02219 14.30031 4303 ft 224 kts 184°
2026-05-06 17:56 36.00771 14.30257 4134 ft 205 kts 151°
2026-05-06 17:56 35.99626 14.31170 3930 ft 194 kts 143°
2026-05-06 17:56 35.98561 14.32172 3670 ft 191 kts 141°
2026-05-06 17:57 35.97564 14.33174 3403 ft 176 kts 137°
2026-05-06 17:57 35.96709 14.34155 3191 ft 161 kts 134°
2026-05-06 17:57 35.95933 14.35099 3076 ft 154 kts 133°
2026-05-06 17:57 35.95167 14.36049 2887 ft 156 kts 133°
2026-05-06 17:58 35.94400 14.36999 2690 ft 155 kts 133°
2026-05-06 17:58 35.93664 14.37915 2483 ft 146 kts 132°
2026-05-06 17:58 35.92989 14.38755 2340 ft 139 kts 133°
2026-05-06 17:58 35.92293 14.39620 2149 ft 143 kts 133°
2026-05-06 17:59 35.91597 14.40484 1925 ft 140 kts 135°
2026-05-06 17:59 35.90925 14.41321 1793 ft 137 kts 135°
2026-05-06 17:59 35.90256 14.42149 1583 ft 133 kts 135°
2026-05-06 17:59 35.89615 14.42947 1398 ft 129 kts 133°
2026-05-06 18:00 35.88999 14.43717 1243 ft 123 kts 133°
2026-05-06 18:00 35.88401 14.44448 1050 ft 119 kts 133°
2026-05-06 18:00 35.87822 14.45187 904 ft 122 kts 132°
2026-05-06 18:00 35.87244 14.45960 761 ft 123 kts 133°
2026-05-06 18:01 35.86622 14.46691 544 ft 121 kts 132°
2026-05-06 18:01 35.86040 14.47410 402 ft 115 kts 131°
2026-05-06 18:01 35.85487 14.48131 335 ft 132 kts 127°
2026-05-06 18:01 35.84777 14.49075 1090 ft 169 kts 131°
2026-05-06 18:02 35.83903 14.50114 1536 ft 171 kts 137°
2026-05-06 18:02 35.83053 14.51016 1952 ft 146 kts 139°
2026-05-06 18:02 35.82300 14.51739 2225 ft 135 kts 141°
2026-05-06 18:02 35.81471 14.52372 2080 ft 147 kts 149°
2026-05-06 18:03 35.80542 14.52967 2018 ft 155 kts 149°
2026-05-06 18:03 35.79525 14.53603 2128 ft 171 kts 149°
2026-05-06 18:03 35.78465 14.54260 2306 ft 171 kts 149°
2026-05-06 18:03 35.77400 14.54923 2483 ft 171 kts 147°
2026-05-06 18:04 35.76585 14.55921 2597 ft 173 kts 113°
2026-05-06 18:04 35.76435 14.57430 2846 ft 186 kts 94°
2026-05-06 18:04 35.76468 14.59056 2905 ft 191 kts 94°
2026-05-06 18:04 35.76491 14.60693 2941 ft 190 kts 94°
2026-05-06 18:05 35.76553 14.62315 2968 ft 197 kts 83°
2026-05-06 18:05 35.77360 14.63971 3005 ft 265 kts 47°
2026-05-06 18:05 35.79230 14.65069 3000 ft 334 kts 16°
2026-05-06 18:05 35.81614 14.65120 2964 ft 344 kts 354°
2026-05-06 18:06 35.83879 14.64362 2959 ft 327 kts 340°
2026-05-06 18:06 35.85813 14.62995 2982 ft 315 kts 325°
2026-05-06 18:06 35.87514 14.61366 2949 ft 304 kts 322°
2026-05-06 18:06 35.89171 14.59714 2978 ft 310 kts 322°
2026-05-06 18:07 35.90868 14.58060 2958 ft 311 kts 323°
2026-05-06 18:07 35.92006 14.56978 2951 ft 311 kts 324°
2026-05-06 18:07 35.93732 14.55370 2971 ft 311 kts 324°
2026-05-06 18:07 35.95474 14.53773 2972 ft 312 kts 324°
2026-05-06 18:08 35.97808 14.51655 2975 ft 317 kts 325°